Starlink 31192

operational
NORAD ID: 58794 Int'l Des: 2024-012 Owner: SPXS Country: US Constellation: starlink
LEOCIRCULAR

Starlink 31192について

説明を読み込み中...

リアルタイム位置

3D地球を読み込み中...

次回通過

高度履歴

Altitude vs Time

uPlot chart will show altitude changes over time

軌道要素

1 58794U 24012H 25305.67265563 .00002036 00000-0 83529-4 0 9999
2 58794 43.0006 168.5433 0000954 268.4058 91.6685 15.27564776101657
Epoch: Nov 1, 2025 • Age: 28 hours

現在のステータス

高度 488.3 km
速度 7.62 km/s
衛星直下点 -23.62°S, 148.26°E
打ち上げ日 Jan 15, 2024
運用期間 1.7 years
タイプ internet

技術仕様

分類 Payload
質量 730.00 kg
乾燥質量 700.00 kg
総質量 730.00 kg
長さ 0.30 m
直径 4.10 m
スパン 29.00 m
形状 Box + pan
製造者 SPXS
バスタイプ Starlink V2M
フェーズステータス In Orbit
所有者/国 SPXS/US

大規模コンステレーション

Loading constellations...